Simultaneous Nadir Overpasses (SNOs) Predictions

Prediction of SNOs between NOAA-15 and METOP-C Satellite Orbit:

Table of predicted SNOs for the next 14.0 days since TLE Epoch: 12/23/2023
Index Date (NOAA-15) Time (NOAA-15) Lat,Lon (NOAA-15) SZA (NOAA-15 ) Date (METOP-C) Time (METOP-C) Lat,Lon (METOP-C) SZA (METOP-C ) Distance(km) Time Diff (sec)
1 12/27/2023 17:00:05 81.07, -36.56 106.16 12/27/2023 16:58:52 81.07, -36.47 106.14 1.62 73
2 12/27/2023 17:50:34 -81.07, 130.68 73.86 12/27/2023 17:49:33 -81.06, 130.57 73.90 2.49 61
3 12/27/2023 18:41:06 81.08, -62.03 106.14 12/27/2023 18:40:14 81.07, -61.95 106.12 1.88 52
4 12/27/2023 19:31:34 -81.07, 105.59 73.85 12/27/2023 19:30:54 -81.07, 105.46 73.88 2.22 40
5 12/27/2023 20:22:06 81.07, -87.13 106.15 12/27/2023 20:21:35 81.08, -87.06 106.15 1.28 31
6 12/27/2023 21:12:35 -81.08, 80.13 73.87 12/27/2023 21:12:16 -81.06, 79.98 73.90 2.89 19
7 12/27/2023 22:03:07 81.08,-112.59 106.13 12/27/2023 22:02:57 81.07,-112.54 106.13 1.54 10
8 12/27/2023 22:53:35 -81.07, 55.03 73.86 12/27/2023 22:53:37 -81.07, 54.87 73.87 2.82 2
9 12/27/2023 23:44:07 81.07,-137.69 106.14 12/27/2023 23:44:18 81.08,-137.64 106.15 1.00 11
10 12/28/2023 00:34:36 -81.08, 29.58 73.88 12/28/2023 00:34:58 -81.08, 29.77 73.85 3.31 22
11 12/28/2023 01:25:08 81.08,-163.16 106.12 12/28/2023 01:25:40 81.07,-163.12 106.13 1.24 32
12 12/28/2023 02:15:37 -81.09, 4.12 73.89 12/28/2023 02:16:20 -81.08, 4.29 73.87 3.24 43
13 12/28/2023 03:06:08 81.08, 171.75 106.13 12/28/2023 03:07:01 81.08, 171.77 106.15 0.81 53
14 12/28/2023 03:56:37 -81.08, -20.98 73.89 12/28/2023 03:57:41 -81.09, -20.82 73.84 2.76 64



Historial Predications of SNOs between NOAA-15 and METOP-C
